Flag for France Weather past 2 weeks in Marseille, France

Now
52 °F

Clear.


Feels Like: 45 °F
Forecast: 51 / 64 °F
Wind: 29 mph from Northwest

Location: Marseille / Marignane

Current Time: Apr 2, 2015 at 12:58:55 AM

Latest Report: Apr 2, 2015 at 12:30 AM


Visibility: 10 mi

Pressure: 30.21 "Hg

Humidity: 41%

Dew point: 28 °F

Location of MarseilleLocation

Historic Weather in Marseille — Graph

°F

Marseille temperature yesterday

Maximum temperature yesterday: 59 °F (at 12:00 AM)
Minimum temperature yesterday: 54 °F (at 6:00 AM)
Average temperature yesterday: 56 °F

Past Weeks' High & Low Weather Summary

 TemperatureHumidityPressure
High72 °F (Mar 30, 4:30 PM)100% (Mar 18, 1:00 AM)30.24 "Hg (Mar 18, 1:00 AM)
Low41 °F (Mar 23, 5:30 AM)29% (Apr 1, 6:00 PM)29.50 "Hg (Mar 25, 3:00 PM)
Average55 °F66%29.97 "Hg
* Reported Mar 17 10:00 PM — Apr 1 11:30 PM, Marseille, Weather by CustomWeather, © 2015

Note: Actual official high and low records may vary slightly from our data, if they occured in-between our weather recording intervals... More about our weather records

Advertising

Marseille weather history for previous 24 hours

 ConditionsComfort  
Time TempWeatherWind HumidityBarometerVisibility
11:30 PM
Wed, Apr 1
54 °FClear.26 mph35%30.21 "Hg10 mi
11:00 PM54 °FClear.28 mph38%30.24 "Hg10 mi
10:30 PM54 °FClear.31 mph35%30.24 "Hg10 mi
10:00 PM54 °FClear.31 mph35%30.24 "Hg10 mi
9:30 PM54 °FClear.33 mph38%30.21 "Hg10 mi
9:00 PM55 °FSunny.37 mph31%30.21 "Hg10 mi
8:30 PM55 °FSunny.35 mph33%30.21 "Hg10 mi
8:00 PM55 °FSunny.35 mph33%30.18 "Hg10 mi
7:30 PM57 °FSunny.38 mph31%30.18 "Hg10 mi
7:00 PM57 °FSunny.38 mph33%30.18 "Hg10 mi
6:30 PM57 °FSunny.40 mph31%30.18 "Hg10 mi
6:00 PM59 °FSunny.38 mph29%30.18 "Hg10 mi
5:30 PM59 °FSunny.40 mph31%30.15 "Hg10 mi
5:00 PM59 °FSunny.38 mph31%30.15 "Hg10 mi
4:30 PM59 °FSunny.43 mph34%30.18 "Hg10 mi
4:00 PM59 °FSunny.41 mph31%30.15 "Hg10 mi
3:30 PM59 °FSunny.36 mph31%30.18 "Hg10 mi
3:00 PM59 °FSunny.39 mph31%30.18 "Hg10 mi
2:30 PM57 °FSunny.38 mph39%30.18 "Hg10 mi
2:00 PM59 °FSunny.37 mph34%30.21 "Hg10 mi
1:30 PM57 °FSunny.38 mph36%30.21 "Hg10 mi
1:00 PM57 °FSunny.36 mph33%30.21 "Hg10 mi
12:30 PM57 °FSunny.43 mph33%30.21 "Hg10 mi
12:00 PM57 °FSunny.45 mph31%30.21 "Hg10 mi
11:30 AM57 °FSunny.41 mph36%30.18 "Hg10 mi
11:00 AM55 °FSunny.44 mph33%30.18 "Hg10 mi
10:30 AM55 °FSunny.41 mph38%30.21 "Hg10 mi
10:00 AM55 °FSunny.38 mph41%30.18 "Hg10 mi
9:30 AM55 °FSunny.33 mph44%30.18 "Hg10 mi
9:00 AM55 °FSunny.35 mph47%30.18 "Hg10 mi
8:30 AM54 °FSunny.31 mph51%30.18 "Hg10 mi
8:00 AM54 °FClear.30 mph51%30.18 "Hg10 mi
7:30 AM54 °FClear.29 mph51%30.15 "Hg10 mi
7:00 AM54 °FClear.29 mph54%30.15 "Hg10 mi
6:30 AM54 °FClear.32 mph58%30.12 "Hg10 mi
6:00 AM54 °FClear.32 mph58%30.12 "Hg10 mi
5:30 AM55 °FClear.32 mph55%30.12 "Hg10 mi
4:30 AM55 °FClear.32 mph55%30.12 "HgN/A
4:00 AM55 °FClear.32 mph59%30.12 "HgN/A
3:30 AM57 °FClear.28 mph55%30.12 "HgN/A
3:00 AM57 °FClear.18 mph48%30.12 "HgN/A
2:30 AM55 °FClear.22 mph59%30.12 "HgN/A
2:00 AM55 °FClear.23 mph59%30.12 "HgN/A
1:30 AM57 °FClear.26 mph55%30.09 "HgN/A
1:00 AM57 °FClear.29 mph55%30.09 "Hg10 mi
12:30 AM59 °FClear.26 mph51%30.09 "Hg10 mi
12:00 AM59 °FClear.28 mph51%30.09 "Hg10 mi
Weather by CustomWeather, © 2015

See weather overviewHow to use our weather pages